| time (UTC) | temp F | wind direction | speed MPH | gust MPH | rain 1hr in | rain 24hr in | rain mn in | humidity % | barometer mb |
| 20260509170222 | 79 | 41 | 5.0 | 5.0 | 0.00 | 0.00 | 0.00 | ||
| 20260509165723 | 80 | 58 | 4.0 | 4.0 | 0.00 | 0.00 | 0.00 | ||
| 20260509165219 | 79 | 45 | 4.0 | 4.0 | 0.00 | 0.00 | 0.00 | ||
| 20260509164221 | 78 | 101 | 6.0 | 5.0 | 0.00 | 0.00 | 0.00 | ||
| 20260509163722 | 79 | 69 | 6.0 | 8.0 | 0.00 | 0.00 | 0.00 | ||
| 20260509163223 | 78 | 65 | 5.0 | 5.0 | 0.00 | 0.00 | 0.00 | ||
| 20260509161223 | 73 | 21 | 5.0 | 5.0 | 0.00 | 0.00 | 0.00 | ||
| 20260509160223 | 72 | 18 | 7.0 | 5.0 | 0.00 | 0.00 | 0.00 | ||
| 20260509155224 | 74 | 63 | 6.0 | 4.0 | 0.00 | 0.00 | 0.00 | ||
| 20260509154725 | 71 | 339 | 6.0 | 5.0 | 0.00 | 0.00 | 0.00 | ||
| 20260509152225 | 74 | 48 | 9.0 | 10.0 | 0.00 | 0.00 | 0.00 | ||
| 20260509151223 | 75 | 75 | 8.0 | 7.0 | 0.00 | 0.00 | 0.00 | ||
| 20260509150224 | 76 | 59 | 3.0 | 3.0 | 0.00 | 0.00 | 0.00 | ||
| 20260509145725 | 74 | 110 | 3.0 | 3.0 | 0.00 | 0.00 | 0.00 | ||
| 20260509145224 | 74 | 70 | 3.0 | 5.0 | 0.00 | 0.00 | 0.00 | ||
| 20260509141719 | 77 | 305 | 1.0 | 1.0 | 0.00 | 0.00 | 0.00 | ||
| 20260509140717 | 74 | 8 | 2.0 | 4.0 | 0.00 | 0.00 | 0.00 | ||
| 20260509140222 | 75 | 340 | 6.0 | 3.0 | 0.00 | 0.00 | 0.00 | ||
| 20260509134718 | 72 | 357 | 7.0 | 7.0 | 0.00 | 0.00 | 0.00 | ||
| 20260509134219 | 76 | 42 | 9.0 | 7.0 | 0.00 | 0.00 | 0.00 | ||
| 20260509133719 | 77 | 13 | 3.0 | 2.0 | 0.00 | 0.00 | 0.00 | ||
| 20260509133215 | 78 | 82 | 4.0 | 4.0 | 0.00 | 0.00 | 0.00 | ||
| 20260509132216 | 75 | 28 | 5.0 | 8.0 | 0.00 | 0.00 | 0.00 | ||
| 20260509131717 | 76 | 55 | 7.0 | 7.0 | 0.00 | 0.00 | 0.00 | ||
| 20260509124717 | 74 | 356 | 2.0 | 1.0 | 0.00 | 0.00 | 0.00 | ||
| 20260509124214 | 77 | 80 | 2.0 | 1.0 | 0.00 | 0.00 | 0.00 | ||
| 20260509123715 | 78 | 58 | 4.0 | 1.0 | 0.00 | 0.00 | 0.00 | ||
| 20260509122219 | 73 | 349 | 4.0 | 3.0 | 0.00 | 0.00 | 0.00 | ||
| 20260509113221 | 73 | 28 | 6.0 | 5.0 | 0.00 | 0.00 | 0.00 | ||
| 20260509112719 | 72 | 20 | 6.0 | 5.0 | 0.00 | 0.00 | 0.00 | ||
| 20260509112220 | 72 | 0 | 3.0 | 5.0 | 0.00 | 0.00 | 0.00 | ||
| 20260509104718 | 71 | 193 | 3.0 | 3.0 | 0.00 | 0.00 | 0.00 | ||
| 20260509104219 | 72 | 184 | 3.0 | 2.0 | 0.00 | 0.00 | 0.00 | ||
| 20260509102720 | 73 | 131 | 5.0 | 7.0 | 0.00 | 0.00 | 0.00 | ||
| 20260509102222 | 72 | 128 | 6.0 | 6.0 | 0.00 | 0.00 | 0.00 | ||
| 20260509101221 | 70 | 153 | 5.0 | 5.0 | 0.00 | 0.00 | 0.00 | ||
| 20260509094721 | 65 | 0 | 4.0 | 4.0 | 0.00 | 0.00 | 0.00 | ||
| 20260509094223 | 63 | 3 | 5.0 | 3.0 | 0.00 | 0.00 | 0.00 | ||
| 20260509093724 | 65 | 305 | 3.0 | 3.0 | 0.00 | 0.00 | 0.00 | ||
| 20260509093226 | 66 | 49 | 4.0 | 6.0 | 0.00 | 0.00 | 0.00 | ||
| 20260509091727 | 65 | 27 | 3.0 | 3.0 | 0.00 | 0.00 | 0.00 | ||
| 20260509091229 | 64 | 49 | 4.0 | 5.0 | 0.00 | 0.00 | 0.00 | ||
| 20260509090730 | 65 | 193 | 2.0 | 2.0 | 0.00 | 0.00 | 0.00 | ||
| 20260509090231 | 62 | 93 | 0.0 | 3.0 | 0.00 | 0.00 | 0.00 | ||
| 20260509085730 | 62 | 345 | 1.0 | 1.0 | 0.00 | 0.00 | 0.00 | ||
| 20260509084234 | 64 | 141 | 5.0 | 4.0 | 0.00 | 0.00 | 0.00 | ||
| 20260509083735 | 65 | 156 | 3.0 | 5.0 | 0.00 | 0.00 | 0.00 | ||
| 20260509083233 | 63 | 128 | 3.0 | 4.0 | 0.00 | 0.00 | 0.00 | ||
| 20260509081238 | 62 | 145 | 5.0 | 4.0 | 0.00 | 0.00 | 0.00 | ||
| 20260509080238 | 59 | 3 | 2.0 | 0.0 | 0.00 | 0.00 | 0.00 | ||
| 20260509075241 | 60 | 347 | 0.0 | 0.0 | 0.00 | 0.00 | 0.00 | ||
| 20260509072248 | 56 | 46 | 4.0 | 3.0 | 0.00 | 0.00 | 0.00 | ||
| 20260509070749 | 54 | 24 | 3.0 | 3.0 | 0.00 | 0.00 | 0.00 | ||
| 20260509070251 | 54 | 55 | 5.0 | 4.0 | 0.00 | 0.00 | 0.00 | ||
| 20260509065752 | 53 | 24 | 3.0 | 4.0 | 0.00 | 0.00 | 0.00 | ||
| 20260509065250 | 53 | 55 | 2.0 | 4.0 | 0.00 | 0.00 | 0.00 | ||
| 20260509064751 | 52 | 44 | 5.0 | 6.0 | 0.00 | 0.00 | 0.00 | ||
| 20260509064253 | 51 | 58 | 7.0 | 6.0 | 0.00 | 0.00 | 0.00 | ||
| 20260509063754 | 50 | 52 | 4.0 | 4.0 | 0.00 | 0.00 | 0.00 | ||
| 20260509063256 | 49 | 14 | 5.0 | 5.0 | 0.00 | 0.00 | 0.00 | ||
| 20260509062753 | 49 | 0 | 6.0 | 5.0 | 0.00 | 0.00 | 0.00 | ||
| 20260509062255 | 50 | 338 | 5.0 | 5.0 | 0.00 | 0.00 | 0.00 | ||
| 20260509061756 | 49 | 8 | 4.0 | 5.0 | 0.00 | 0.00 | 0.00 | ||
| 20260509061258 | 48 | 356 | 7.0 | 5.0 | 0.00 | 0.00 | 0.00 | ||
| 20260509060257 | 48 | 336 | 6.0 | 5.0 | 0.00 | 0.00 | 0.00 | ||
| 20260509055758 | 49 | 3 | 5.0 | 6.0 | 0.00 | 0.00 | 0.00 | ||
| 20260509055300 | 49 | 56 | 5.0 | 5.0 | 0.00 | 0.00 | 0.00 | ||
| 20260509054801 | 49 | 41 | 4.0 | 3.0 | 0.00 | 0.00 | 0.00 | ||
| 20260509054302 | 49 | 20 | 3.0 | 3.0 | 0.00 | 0.00 | 0.00 | ||
| 20260509053800 | 48 | 34 | 0.0 | 0.0 | 0.00 | 0.00 | 0.00 | ||
| 20260509053302 | 48 | 34 | 0.0 | 0.0 | 0.00 | 0.00 | 0.00 | ||
| 20260509051304 | 49 | 34 | 0.0 | 0.0 | 0.00 | 0.00 | 0.00 | ||
| 20260509050307 | 46 | 34 | 0.0 | 0.0 | 0.00 | 0.00 | 0.00 | ||
| 20260509045310 | 49 | 34 | 0.0 | 0.0 | 0.00 | 0.00 | 0.00 | ||
| 20260509043812 | 47 | 34 | 0.0 | 0.0 | 0.00 | 0.00 | 0.00 | ||
| 20260509042815 | 46 | 34 | 0.0 | 0.0 | 0.00 | 0.00 | 0.00 | ||
| 20260509042312 | 47 | 38 | 2.0 | 1.0 | 0.00 | 0.00 | 0.00 | ||
| 20260509041315 | 44 | 339 | 0.0 | 0.0 | 0.00 | 0.00 | 0.00 | ||
| 20260509040318 | 44 | 28 | 2.0 | 2.0 | 0.00 | 0.00 | 0.00 | ||
| 20260509033823 | 41 | 24 | 0.0 | 0.0 | 0.00 | 0.00 | 0.00 | ||
| 20260509032823 | 44 | 24 | 0.0 | 0.0 | 0.00 | 0.00 | 0.00 | ||
| 20260509031826 | 42 | 7 | 3.0 | 3.0 | 0.00 | 0.00 | 0.00 | ||
| 20260509030826 | 43 | 350 | 1.0 | 1.0 | 0.00 | 0.00 | 0.00 | ||
| 20260509030328 | 42 | 338 | 4.0 | 4.0 | 0.00 | 0.00 | 0.00 | ||
| 20260509025829 | 42 | 0 | 6.0 | 5.0 | 0.00 | 0.00 | 0.00 | ||
| 20260509024832 | 42 | 359 | 5.0 | 6.0 | 0.00 | 0.00 | 0.00 | ||
| 20260509023832 | 41 | 359 | 4.0 | 4.0 | 0.00 | 0.00 | 0.00 | ||
| 20260509023334 | 42 | 4 | 2.0 | 3.0 | 0.00 | 0.00 | 0.00 | ||
| 20260509022337 | 42 | 6 | 3.0 | 4.0 | 0.00 | 0.00 | 0.00 | ||
| 20260509021337 | 42 | 8 | 4.0 | 4.0 | 0.00 | 0.00 | 0.00 | ||
| 20260509020838 | 43 | 3 | 3.0 | 3.0 | 0.00 | 0.00 | 0.00 | ||
| 20260509015841 | 42 | 350 | 3.0 | 3.0 | 0.00 | 0.00 | 0.00 | ||
| 20260509014343 | 43 | 345 | 2.0 | 2.0 | 0.00 | 0.00 | 0.00 | ||
| 20260509011847 | 41 | 3 | 5.0 | 4.0 | 0.00 | 0.00 | 0.00 | ||
| 20260509011349 | 43 | 15 | 5.0 | 5.0 | 0.00 | 0.00 | 0.00 | ||
| 20260509010349 | 44 | 28 | 3.0 | 3.0 | 0.00 | 0.00 | 0.00 | ||
| 20260509005850 | 41 | 7 | 4.0 | 4.0 | 0.00 | 0.00 | 0.00 | ||
| 20260509005352 | 42 | 1 | 2.0 | 2.0 | 0.00 | 0.00 | 0.00 | ||
| 20260509004851 | 42 | 345 | 3.0 | 3.0 | 0.00 | 0.00 | 0.00 | ||
| 20260509004353 | 42 | 6 | 3.0 | 3.0 | 0.00 | 0.00 | 0.00 | ||
| 20260509003851 | 45 | 34 | 2.0 | 2.0 | 0.00 | 0.00 | 0.00 | ||
| 20260509003352 | 45 | 37 | 3.0 | 3.0 | 0.00 | 0.00 | 0.00 | ||
| 20260509002853 | 44 | 359 | 2.0 | 1.0 | 0.00 | 0.00 | 0.00 | ||
| 20260509002355 | 45 | 31 | 2.0 | 2.0 | 0.00 | 0.00 | 0.00 | ||
| 20260509001354 | 45 | 330 | 0.0 | 0.0 | 0.00 | 0.00 | 0.00 | ||
| 20260509000855 | 46 | 330 | 0.0 | 0.0 | 0.00 | 0.00 | 0.00 | ||
| 20260508235357 | 44 | 349 | 6.0 | 6.0 | 0.00 | 0.00 | 0.00 | ||
| 20260508234355 | 44 | 332 | 2.0 | 2.0 | 0.00 | 0.00 | 0.00 | ||
| 20260508233857 | 45 | 39 | 1.0 | 1.0 | 0.00 | 0.00 | 0.00 | ||
| 20260508233358 | 44 | 20 | 4.0 | 3.0 | 0.00 | 0.00 | 0.00 | ||
| 20260508232859 | 43 | 27 | 3.0 | 5.0 | 0.00 | 0.00 | 0.00 | ||
| 20260508232357 | 43 | 35 | 3.0 | 3.0 | 0.00 | 0.00 | 0.00 | ||
| 20260508225855 | 44 | 4 | 4.0 | 4.0 | 0.00 | 0.00 | 0.00 | ||
| 20260508222901 | 44 | 353 | 5.0 | 5.0 | 0.00 | 0.00 | 0.00 | ||
| 20260508221405 | 46 | 8 | 3.0 | 3.0 | 0.00 | 0.00 | 0.00 | ||
| 20260508220902 | 46 | 8 | 4.0 | 4.0 | 0.00 | 0.00 | 0.00 | ||
| 20260508215407 | 47 | 359 | 0.0 | 0.0 | 0.00 | 0.00 | 0.00 | ||
| 20260508212413 | 47 | 34 | 2.0 | 2.0 | 0.00 | 0.00 | 0.00 | ||
| 20260508211909 | 47 | 10 | 4.0 | 5.0 | 0.00 | 0.00 | 0.00 | ||
| 20260508211411 | 47 | 359 | 3.0 | 3.0 | 0.00 | 0.00 | 0.00 | ||
| 20260508210912 | 48 | 346 | 2.0 | 3.0 | 0.00 | 0.00 | 0.00 | ||
| 20260508210414 | 50 | 23 | 1.0 | 1.0 | 0.00 | 0.00 | 0.00 | ||
| 20260508205915 | 48 | 18 | 3.0 | 2.0 | 0.00 | 0.00 | 0.00 | ||
| 20260508205414 | 48 | 31 | 4.0 | 3.0 | 0.00 | 0.00 | 0.00 | ||
| 20260508203918 | 49 | 15 | 2.0 | 3.0 | 0.00 | 0.00 | 0.00 | ||
| 20260508202917 | 49 | 41 | 2.0 | 2.0 | 0.00 | 0.00 | 0.00 | ||
| 20260508201919 | 48 | 28 | 3.0 | 3.0 | 0.00 | 0.00 | 0.00 | ||
| 20260508201421 | 48 | 350 | 4.0 | 4.0 | 0.00 | 0.00 | 0.00 | ||
| 20260508200922 | 48 | 18 | 5.0 | 4.0 | 0.00 | 0.00 | 0.00 | ||
| 20260508194426 | 50 | 352 | 6.0 | 6.0 | 0.00 | 0.00 | 0.00 | ||
| 20260508192927 | 51 | 357 | 6.0 | 6.0 | 0.00 | 0.00 | 0.00 | ||
| 20260508191929 | 51 | 3 | 6.0 | 6.0 | 0.00 | 0.00 | 0.00 | ||
| 20260508191428 | 51 | 0 | 6.0 | 6.0 | 0.00 | 0.00 | 0.00 | ||
| 20260508190430 | 52 | 339 | 6.0 | 6.0 | 0.00 | 0.00 | 0.00 | ||
| 20260508183435 | 53 | 15 | 6.0 | 5.0 | 0.00 | 0.00 | 0.00 | ||
| 20260508182936 | 55 | 3 | 6.0 | 7.0 | 0.00 | 0.00 | 0.00 | ||
| 20260508181936 | 56 | 7 | 7.0 | 8.0 | 0.00 | 0.00 | 0.00 | ||
| 20260508180938 | 57 | 6 | 7.0 | 7.0 | 0.00 | 0.00 | 0.00 | ||
| 20260508174941 | 64 | 1 | 5.0 | 6.0 | 0.00 | 0.00 | 0.00 | ||
| 20260508173943 | 65 | 4 | 9.0 | 8.0 | 0.00 | 0.00 | 0.00 | ||
| 20260508172943 | 66 | 10 | 7.0 | 8.0 | 0.00 | 0.00 | 0.00 |